Stations météo

Publicité
Cazaux, France (7502): Température de l'air & dewpoint: 14.08.2018 22:00:00 - 20.08.2018 22:00:00 (CEST)Cazaux, France (7502): Température de l'air 5cm: 14.08.2018 22:00:00 - 20.08.2018 22:00:00 (CEST)Cazaux, France (7502): Température de l'air -20cm & Température de l'air -100cm: 14.08.2018 22:00:00 - 20.08.2018 22:00:00 (CEST)Cazaux, France (7502): Vitesse du vent & gusts: 14.08.2018 22:00:00 - 20.08.2018 22:00:00 (CEST)Cazaux, France (7502): Direction du vent: 14.08.2018 22:00:00 - 20.08.2018 22:00:00 (CEST)Cazaux, France (7502): reduced air pressure: 14.08.2018 22:00:00 - 20.08.2018 22:00:00 (CEST)Cazaux, France (7502): visibility: 14.08.2018 22:00:00 - 20.08.2018 22:00:00 (CEST)Cazaux, France (7502): Quantités de précipitations: 14.08.2018 22:00:00 - 20.08.2018 22:00:00 (CEST)
Date & Time tt [°C] td [°C] tt 5cm [°C] tt -20cm [°C] tt -100cm [°C] ff [km/h] ff [knt] fx [km/h] fx [knt] dd ppp [hPa] vv [km] rr [mm]
20.08.2018 22:00:00 21,3 18,1 20,4 23,4 23,2 14 8 23 13 NNW 1020,4 30 0,0
20.08.2018 21:00:00 22,4 17,7 21,7 23,3 23,2 14 8 24 13 NNW 1020,0 34 0,0
20.08.2018 20:00:00 24,8 16,0 26,7 23,2 23,2 16 9 26 14 NW 1019,8 39 0,0
20.08.2018 19:00:00 25,2 15,8 29,5 23,1 23,2 18 10 27 15 NW 1020,3 21 0,0
20.08.2018 18:00:00 26,4 14,5 32,6 23,0 23,2 16 8 29 16 WNW 1020,4 48 0,0
20.08.2018 17:00:00 26,6 13,7 33,0 23,0 23,2 18 10 25 13 WNW 1020,9 42 0,0
20.08.2018 16:00:00 27,9 12,3 35,6 22,9 23,2 16 9 23 12 WNW 1021,4 41 0,0
20.08.2018 15:00:00 26,5 12,9 34,8 23,0 23,2 11 6 21 12 WNW 1022,1 42 0,0
20.08.2018 14:00:00 26,1 15,2 33,7 23,0 23,2 10 5 19 10 WNW 1022,4 44 0,0
20.08.2018 13:00:00 25,3 15,9 32,0 23,1 23,2 9 5 18 10 W 1022,6 39 0,0
20.08.2018 12:00:00 23,9 15,9 29,3 23,1 23,2 9 5 21 11 NW 1022,9 30 0,0
20.08.2018 11:00:00 22,5 16,5 26,4 23,2 23,2 10 6 18 10 NNW 1023,0 25 0,0
20.08.2018 10:00:00 20,9 17,7 22,9 23,3 23,2 12 6 17 9 NW 1022,9 20 0,0
20.08.2018 09:00:00 17,9 17,7 14,2 23,4 23,2 4 2 6 3 NNW 1023,0 14 0,0
20.08.2018 08:00:00 14,6 14,4 8,6 23,5 23,2 0 0 4 2 N 1022,8 12 0,0
20.08.2018 07:00:00 12,0 11,7 8,6 23,5 23,2 2 1 4 2 W 1022,8 0,4 0,0
20.08.2018 06:00:00 13,9 13,6 9,8 23,6 23,2 4 2 7 4 WNW 1022,4 11 0,0
20.08.2018 05:00:00 13,3 13,0 8,9 23,6 23,2 5 3 7 4 W 1022,7 18 0,0
20.08.2018 04:00:00 12,8 12,2 9,6 23,6 23,2 3 1 4 2 N 1022,8 26 0,0
20.08.2018 03:00:00 13,8 12,9 10,3 23,6 23,2 0 0 5 3 N 1023,0 10 0,0
20.08.2018 02:00:00 15,7 14,2 11,7 23,6 23,2 0 0 7 4 N 1023,2 20 0,0
20.08.2018 01:00:00 17,2 14,7 14,3 23,6 23,2 5 3 16 9 N 1023,3 31 0,0
20.08.2018 00:00:00 17,9 15,3 16,2 23,5 23,2 11 6 18 10 N 1023,5 30 0,0
19.08.2018 23:00:00 18,5 14,8 16,9 23,4 23,2 11 6 17 9 NNW 1023,4 34 0,0
19.08.2018 22:00:00 19,6 14,4 18,0 23,4 23,2 11 6 19 10 NNW 1023,1 39 0,0
19.08.2018 21:00:00 21,2 13,9 20,2 23,3 23,2 15 8 29 15 NNW 1022,8 46 0,0
19.08.2018 20:00:00 23,6 12,3 25,5 23,2 23,2 19 10 35 19 NNW 1022,6 45 0,0
19.08.2018 19:00:00 25,1 10,5 28,9 23,1 23,2 20 11 39 21 NNW 1022,7 41 0,0
19.08.2018 18:00:00 26,3 9,6 32,2 23,0 23,2 22 12 35 19 NNW 1022,7 56 0,0
19.08.2018 17:00:00 27,2 9,5 33,4 22,9 23,2 22 12 35 19 NW 1022,8 52 0,0
19.08.2018 16:00:00 27,6 10,8 35,1 22,9 23,2 22 12 31 17 NW 1022,9 51 0,0
19.08.2018 15:00:00 28,4 10,6 36,0 22,9 23,2 20 11 30 16 NW 1023,2 60 0,0
19.08.2018 14:00:00 28,6 8,3 36,9 22,9 23,2 10 6 34 18 N 1023,4 47 0,0
19.08.2018 13:00:00 27,7 8,0 35,4 23,0 23,2 11 6 21 12 W 1023,8 29 0,0
19.08.2018 12:00:00 26,3 13,1 32,3 23,0 23,2 4 2 12 7 SW 1024,0 38 0,0
19.08.2018 11:00:00 24,2 11,8 29,1 23,1 23,2 3 2 9 5 NNE 1024,1 42 0,0
19.08.2018 10:00:00 21,1 13,5 24,4 23,2 23,2 2 1 9 5 NNE 1024,0 30 0,0
19.08.2018 09:00:00 17,4 15,2 15,7 23,3 23,2 3 1 7 4 NNW 1023,9 32 0,0
19.08.2018 08:00:00 14,5 12,7 12,4 23,3 23,2 2 1 10 5 NNE 1023,3 22 0,0
19.08.2018 07:00:00 14,7 13,9 12,5 23,4 23,2 8 5 13 7 N 1023,1 27 0,0
19.08.2018 06:00:00 15,3 14,0 12,6 23,4 23,2 6 4 11 6 N 1022,9 25 0,0
19.08.2018 05:00:00 15,8 13,5 12,7 23,5 23,2 7 4 14 7 N 1023,2 30 0,0
19.08.2018 04:00:00 16,7 13,6 14,8 23,5 23,2 10 6 17 9 N 1023,2 33 0,0
19.08.2018 03:00:00 17,1 13,4 15,1 23,5 23,2 12 6 18 10 N 1023,5 47 0,0
19.08.2018 02:00:00 16,9 13,6 14,6 23,5 23,2 11 6 16 9 N 1023,6 36 0,0
19.08.2018 01:00:00 17,2 13,3 15,1 23,5 23,2 10 5 16 9 N 1023,8 38 0,0
19.08.2018 00:00:00 17,9 13,2 15,4 23,4 23,2 11 6 16 9 N 1023,9 40 0,0
18.08.2018 23:00:00 17,9 12,8 15,8 23,4 23,2 11 6 18 10 NNW 1023,8 42 0,0
18.08.2018 22:00:00 19,0 12,3 17,1 23,3 23,2 11 6 26 14 NNW 1023,4 46 0,0
18.08.2018 21:00:00 20,6 12,0 19,4 23,2 23,2 17 9 35 19 NNW 1022,7 48 0,0
18.08.2018 20:00:00 22,6 11,3 24,7 23,2 23,2 22 12 34 19 NNW 1022,4 42 0,0
18.08.2018 19:00:00 23,8 11,5 27,7 23,1 23,3 23 12 36 20 NNW 1022,5 60 0,0
18.08.2018 18:00:00 24,6 10,8 30,7 23,0 23,2 22 12 39 21 NNW 1022,5 51 0,0
18.08.2018 17:00:00 24,7 10,9 31,9 22,9 23,2 22 12 36 20 NNW 1022,7 54 0,0
18.08.2018 16:00:00 25,6 11,0 32,2 22,9 23,2 22 12 36 19 NW 1022,9 56 -
18.08.2018 15:00:00 25,7 10,3 31,9 22,9 23,2 23 12 34 19 WNW 1023,2 60 0,0
18.08.2018 14:00:00 25,4 8,0 29,1 22,9 23,2 12 7 31 17 N 1023,8 26 0,0
18.08.2018 13:00:00 24,7 7,8 33,9 23,0 23,2 11 6 28 15 NNE 1024,2 59 0,0
18.08.2018 12:00:00 24,7 9,4 31,7 23,1 23,2 9 5 32 18 N 1024,2 59 0,0
18.08.2018 11:00:00 22,1 11,5 26,3 23,2 23,2 6 3 11 6 NE 1024,4 47 0,0
18.08.2018 10:00:00 19,3 12,3 22,2 23,3 23,2 5 3 11 6 NE 1024,4 46 0,0
18.08.2018 09:00:00 16,1 14,6 14,3 23,4 23,2 8 4 10 5 N 1024,3 34 0,0
18.08.2018 08:00:00 13,1 12,6 7,1 23,4 23,2 6 4 9 5 N 1024,0 20 0,0
18.08.2018 07:00:00 11,3 9,7 8,0 23,5 23,2 2 1 11 6 NNE 1023,8 16 0,0
18.08.2018 06:00:00 14,2 13,4 10,7 23,6 23,2 8 4 9 5 N 1023,5 20 0,0
18.08.2018 05:00:00 14,7 13,9 10,6 23,6 23,2 6 3 11 6 NNW 1023,7 26 0,0
18.08.2018 04:00:00 14,4 13,3 10,0 23,7 23,2 7 4 11 6 NW 1023,8 20 0,0
18.08.2018 03:00:00 15,6 14,1 11,8 23,8 23,2 6 3 11 6 NW 1024,1 37 0,0
18.08.2018 02:00:00 16,7 13,8 13,7 23,8 23,2 8 4 19 10 NW 1024,3 34 0,0
18.08.2018 01:00:00 16,3 13,2 13,7 23,8 23,2 9 5 15 8 NNW 1024,4 43 0,0
18.08.2018 00:00:00 16,6 12,9 13,7 23,8 23,2 8 5 14 8 NNW 1024,2 48 0,0
17.08.2018 23:00:00 16,9 12,4 14,5 23,7 23,2 9 5 17 9 NNW 1024,0 53 0,0
17.08.2018 22:00:00 17,7 12,4 16,0 23,7 23,2 11 6 27 14 NNW 1023,7 57 0,0
17.08.2018 21:00:00 18,9 11,9 18,0 23,6 23,2 14 8 33 18 NNW 1023,2 60 0,0
17.08.2018 20:00:00 20,2 11,9 22,0 23,5 23,2 21 11 37 20 NW 1022,6 52 0,0
17.08.2018 19:00:00 21,1 11,7 25,2 23,5 23,2 22 12 40 21 NNW 1022,4 60 0,0
17.08.2018 18:00:00 - - - - - - - - - - - - -
17.08.2018 17:00:00 - - - - - - - - - - - - -
17.08.2018 16:00:00 - - - - - - - - - - - - -
17.08.2018 15:00:00 - - - - - - - - - - - - -
17.08.2018 14:00:00 - - - - - - - - - - - - -
17.08.2018 13:00:00 - - - - - - - - - - - - -
17.08.2018 12:00:00 - - - - - - - - - - - - -
17.08.2018 11:00:00 20,2 12,2 18,8 23,6 23,2 17 9 32 17 N 1022,2 55 0,0
17.08.2018 10:00:00 19,0 13,4 19,5 23,7 23,2 20 11 31 17 N 1021,8 43 0,0
17.08.2018 09:00:00 18,9 14,4 17,8 23,7 23,2 18 10 27 15 NNW 1021,2 29 0,0
17.08.2018 08:00:00 18,5 14,4 17,6 23,8 23,2 16 9 24 13 NNW 1020,5 34 0,0
17.08.2018 07:00:00 18,8 16,6 17,4 23,8 23,2 12 6 21 11 NNW 1019,8 28 0,0
17.08.2018 06:00:00 18,4 16,7 16,4 23,8 23,2 7 4 20 11 NNW 1019,4 25 0,0
17.08.2018 05:00:00 18,8 17,1 16,9 23,9 23,2 11 6 19 10 NNW 1019,0 27 0,0
17.08.2018 04:00:00 19,1 18,3 18,1 23,9 23,2 7 4 22 12 N 1019,0 32 0,0
17.08.2018 03:00:00 19,5 18,2 18,4 23,9 23,2 7 4 16 9 WSW 1018,7 19 0,2
17.08.2018 02:00:00 19,3 16,1 15,5 23,9 23,2 5 3 9 5 W 1018,8 42 0,0
17.08.2018 01:00:00 18,8 15,3 16,8 23,9 23,2 6 3 13 7 WNW 1018,6 45 0,0
17.08.2018 00:00:00 20,4 15,6 19,2 23,9 23,2 10 5 28 15 NW 1018,8 48 0,0
16.08.2018 23:00:00 20,8 16,2 20,5 23,8 23,2 16 8 24 13 NW 1018,5 46 0,0
16.08.2018 22:00:00 20,9 16,5 20,4 23,7 23,2 12 6 23 12 NW 1018,3 43 0,0
16.08.2018 21:00:00 20,6 16,6 20,0 23,6 23,2 10 5 30 16 NNW 1017,2 38 0,0
16.08.2018 20:00:00 21,6 16,8 22,2 23,5 23,2 19 11 34 18 NW 1016,7 33 0,0
16.08.2018 19:00:00 22,4 16,9 24,6 23,4 23,2 21 11 36 19 NNW 1016,5 32 0,0
16.08.2018 18:00:00 23,9 17,2 28,8 23,3 23,2 22 12 43 23 NW 1016,4 25 0,0
16.08.2018 17:00:00 24,7 17,4 31,1 23,2 23,2 26 14 40 22 NW 1016,2 40 0,0
16.08.2018 16:00:00 28,2 14,4 34,6 23,2 23,2 14 8 25 14 W 1015,9 52 0,0
16.08.2018 15:00:00 27,3 18,0 33,8 23,2 23,2 12 7 28 15 W 1016,0 41 0,0
16.08.2018 14:00:00 27,8 17,0 33,8 23,2 23,2 14 7 24 13 WSW 1016,1 59 0,0
16.08.2018 13:00:00 26,7 17,7 32,9 23,2 23,2 17 9 27 15 SW 1016,2 60 0,0
16.08.2018 12:00:00 27,5 15,8 32,7 23,3 23,2 14 7 21 11 SW 1016,2 60 0,0
16.08.2018 11:00:00 25,9 18,6 0,1 23,3 23,2 7 4 15 8 SSW 1016,0 20 0,0
16.08.2018 10:00:00 23,1 18,8 31,0 23,4 23,2 10 5 13 7 SSW 1015,9 18 0,0
16.08.2018 09:00:00 19,2 18,0 22,1 23,5 23,2 0 0 3 2 N 1015,9 17 0,0
16.08.2018 08:00:00 15,5 14,7 17,2 23,6 23,2 0 0 3 1 N 1015,8 32 0,0
16.08.2018 07:00:00 14,3 13,7 18,2 23,6 23,2 2 1 3 2 W 1015,7 20 0,0
16.08.2018 06:00:00 14,9 14,3 14,5 23,6 23,2 0 0 3 1 N 1015,8 20 0,0
16.08.2018 05:00:00 17,5 16,9 15,9 23,8 23,3 3 2 6 3 N 1015,9 18 0,0
16.08.2018 04:00:00 18,1 17,3 24,7 23,7 23,2 6 3 9 5 N 1016,1 16 0,0
16.08.2018 03:00:00 18,1 17,1 35,5 23,8 23,2 8 4 11 6 N 1016,4 23 0,0
16.08.2018 02:00:00 18,7 17,2 29,8 23,8 23,2 9 5 13 7 N 1016,9 26 0,0
16.08.2018 01:00:00 19,4 16,8 29,8 23,7 23,3 9 5 16 9 NNW 1017,1 24 0,0
16.08.2018 00:00:00 20,5 17,3 31,1 23,6 23,2 11 6 17 9 N 1017,3 30 0,0
15.08.2018 23:00:00 20,6 18,2 28,0 23,6 23,3 10 6 15 8 N 1017,4 28 0,0
15.08.2018 22:00:00 21,4 18,4 26,3 23,5 23,3 7 4 9 5 NNW 1017,4 25 0,0
15.08.2018 21:00:00 23,3 18,0 37,2 23,4 23,3 7 4 16 9 NNW 1017,1 31 0,0
15.08.2018 20:00:00 25,3 17,5 56,2 23,2 23,3 12 6 24 13 NNW 1017,2 36 0,0
15.08.2018 19:00:00 25,8 16,9 57,2 23,1 23,3 19 10 31 17 NW 1017,7 39 0,0
15.08.2018 18:00:00 26,5 16,4 - 23,0 23,3 23 12 32 18 NW 1018,1 45 0,0
15.08.2018 17:00:00 27,6 15,6 - 22,9 23,3 21 12 34 19 NW 1018,5 44 0,0
15.08.2018 16:00:00 28,9 12,7 - 22,8 23,3 16 9 40 21 N 1018,7 36 0,0
15.08.2018 15:00:00 28,1 12,8 45,9 22,8 23,3 12 6 26 14 NNE 1019,5 60 0,0
15.08.2018 14:00:00 27,4 12,6 - 22,8 23,3 8 4 22 12 NE 1020,3 60 0,0
15.08.2018 13:00:00 25,6 12,4 - 22,9 23,3 10 6 20 11 NNE 1020,9 56 0,0
15.08.2018 12:00:00 25,0 13,5 - 22,9 23,3 9 5 17 9 NE 1021,5 48 0,0
15.08.2018 11:00:00 23,4 14,7 - 23,0 23,2 5 3 10 5 N 1021,6 43 0,0
15.08.2018 10:00:00 20,6 16,2 31,9 23,1 23,3 4 2 8 5 NNE 1021,7 44 0,0
15.08.2018 09:00:00 17,9 16,4 - 23,2 23,3 3 2 6 3 ENE 1021,9 26 0,0
15.08.2018 08:00:00 13,4 13,4 33,4 23,3 23,3 0 0 5 3 N 1021,8 22 0,0
15.08.2018 07:00:00 12,7 12,7 33,4 23,4 23,3 0 0 3 1 N 1021,7 19 0,2
15.08.2018 06:00:00 13,0 12,7 37,8 23,5 23,3 0 0 4 2 N 1022,0 33 0,0
15.08.2018 05:00:00 12,5 12,0 52,1 23,6 23,3 3 1 4 2 NNE 1022,1 42 0,0
15.08.2018 04:00:00 13,8 13,3 17,4 23,7 23,3 2 1 3 2 NW 1022,4 28 0,0
15.08.2018 03:00:00 13,8 13,0 18,4 23,8 23,3 0 0 4 2 N 1022,5 32 0,0
15.08.2018 02:00:00 14,8 14,2 15,2 23,8 23,3 3 1 4 2 N 1022,9 33 0,0
15.08.2018 01:00:00 14,5 13,5 14,1 23,8 23,3 0 0 3 1 N 1023,1 21 0,0
15.08.2018 00:00:00 15,3 14,0 15,5 23,8 23,2 0 0 6 3 N 1023,0 32 0,0
14.08.2018 23:00:00 17,5 14,4 17,1 23,7 23,3 4 2 10 6 NNW 1022,6 40 0,0
14.08.2018 22:00:00 18,2 14,3 - 23,7 23,3 6 3 16 9 NW 1022,4 45 0,0

tt = Température de l'air
td = dewpoint
tt 5cm = Température de l'air 5cm
tt -20cm = Température de l'air -20cm
tt -100cm = Température de l'air -100cm
ff = Vitesse du vent
fx = gusts
dd = Direction du vent
ppp = reduced air pressure
vv = visibility
rr = Quantités de précipitations

stations d'obs. à proximité